weather.gov     
National Weather Service

Terminal Aerodrome Forecast
NWS Homepage
This page is being discontinued on March 12, 2014.
The same data is available at this site. Please update your bookmarks.
Thank you, and we apologize for the inconvenience.
Please send an email to SR-SRH.Webmaster@noaa.gov with any concerns.


Current Version
Previous Version:    01  02  03  04  05  06  07  08  09  10  11  12  13  14  
[Printable]
201
FTUS41 KCAR 281120
TAFPQI
TAF
KPQI 281120Z 2812/2912 34006KT P6SM BKN200
     FM281600 34005KT P6SM BKN020
     FM282100 34005KT P6SM VCSH SCT030
     FM290000 VRB03KT 5SM -SHSN BKN030
     FM290200 VRB03KT P6SM SKC
      AMD LTD TO CLD VIS AND WIND=




201
FTUS41 KCAR 281120
TAFPQI
TAF
KPQI 281120Z 2812/2912 34006KT P6SM BKN200
     FM281600 34005KT P6SM BKN020
     FM282100 34005KT P6SM VCSH SCT030
     FM290000 VRB03KT 5SM -SHSN BKN030
     FM290200 VRB03KT P6SM SKC
      AMD LTD TO CLD VIS AND WIND=


U.S. Dept. of Commerce
NOAA National Weather Service
1325 East West Highway
Silver Spring, MD 20910
E-mail: w-nws.webmaster@noaa.gov
Page last modified: May 16, 2007
NATIONAL WEATHER SERVICE: for Safety, for Work, for Fun - FOR LIFE